Year,Month,Day,Hour,Minute,Value (Times are PST for temperature in C)
2012,11,24,09,05,6.30
2012,11,24,09,06,6.30
2012,11,24,09,07,6.40
2012,11,24,09,08,6.40
2012,11,24,09,09,6.50
2012,11,24,09,10,6.50
2012,11,24,09,11,6.60
2012,11,24,09,12,6.60
2012,11,24,09,13,6.70
2012,11,24,09,14,6.70
2012,11,24,09,15,6.80
2012,11,24,09,16,6.80
2012,11,24,09,17,6.90
2012,11,24,09,18,6.90
2012,11,24,09,19,6.90
2012,11,24,09,20,7.00
2012,11,24,09,21,7.00
2012,11,24,09,22,7.00
2012,11,24,09,23,7.10
2012,11,24,09,24,7.10
2012,11,24,09,25,7.10
2012,11,24,09,26,7.20
2012,11,24,09,27,7.20
2012,11,24,09,28,7.30
2012,11,24,09,29,7.30
2012,11,24,09,30,7.40
2012,11,24,09,31,7.50
2012,11,24,09,32,7.50
2012,11,24,09,33,7.50
2012,11,24,09,34,7.60
2012,11,24,09,35,7.70
2012,11,24,09,36,7.70
2012,11,24,09,37,7.70
2012,11,24,09,38,7.80
2012,11,24,09,39,7.80
2012,11,24,09,40,7.80
2012,11,24,09,41,7.80
2012,11,24,09,42,7.80
2012,11,24,09,43,7.80
2012,11,24,09,44,7.80
2012,11,24,09,45,7.70
2012,11,24,09,46,7.70
2012,11,24,09,47,7.70
2012,11,24,09,48,7.70
2012,11,24,09,49,7.70
2012,11,24,09,50,7.70
2012,11,24,09,51,7.70
2012,11,24,09,52,7.70
2012,11,24,09,53,7.70
2012,11,24,09,54,7.80
2012,11,24,09,55,7.80
2012,11,24,09,56,7.80
2012,11,24,09,57,7.80
2012,11,24,09,58,7.80
2012,11,24,09,59,7.90
2012,11,24,10,00,7.90
2012,11,24,10,01,7.90
2012,11,24,10,02,7.80
2012,11,24,10,03,7.80
2012,11,24,10,04,7.90
2012,11,24,10,05,7.90
2012,11,24,10,06,7.90
2012,11,24,10,07,7.90
2012,11,24,10,08,7.90
2012,11,24,10,09,7.90
2012,11,24,10,10,8.00
2012,11,24,10,11,8.00
2012,11,24,10,12,8.00
2012,11,24,10,13,8.00
2012,11,24,10,14,8.00
2012,11,24,10,15,8.00
2012,11,24,10,16,8.10
2012,11,24,10,17,8.10
2012,11,24,10,18,8.10
2012,11,24,10,19,8.10
2012,11,24,10,20,8.20
2012,11,24,10,21,8.20
2012,11,24,10,22,8.20
2012,11,24,10,23,8.20
2012,11,24,10,24,8.20
2012,11,24,10,25,8.20
2012,11,24,10,26,8.20
2012,11,24,10,27,8.20
2012,11,24,10,28,8.20
2012,11,24,10,29,8.20
2012,11,24,10,30,8.20
2012,11,24,10,31,8.20
2012,11,24,10,32,8.20
2012,11,24,10,33,8.30
2012,11,24,10,34,8.30
2012,11,24,10,35,8.30
2012,11,24,10,36,8.30
2012,11,24,10,37,8.30
2012,11,24,10,38,8.30
2012,11,24,10,39,8.40
2012,11,24,10,40,8.40
2012,11,24,10,41,8.40
2012,11,24,10,42,8.40
2012,11,24,10,43,8.40
2012,11,24,10,44,8.40
2012,11,24,10,45,8.40
2012,11,24,10,46,8.40
2012,11,24,10,47,8.40
2012,11,24,10,48,8.40
2012,11,24,10,49,8.40
2012,11,24,10,50,8.40
2012,11,24,10,51,8.40
2012,11,24,10,52,8.50
2012,11,24,10,53,8.50
2012,11,24,10,54,8.50
2012,11,24,10,55,8.60
2012,11,24,10,56,8.60
2012,11,24,10,57,8.60
2012,11,24,10,58,8.60
2012,11,24,10,59,8.60
2012,11,24,11,00,8.60
2012,11,24,11,01,8.60
2012,11,24,11,02,8.60
2012,11,24,11,03,8.60
2012,11,24,11,04,8.60
2012,11,24,11,05,8.60
2012,11,24,11,06,8.60
2012,11,24,11,07,8.60
2012,11,24,11,08,8.60
2012,11,24,11,09,8.60
2012,11,24,11,10,8.70
2012,11,24,11,11,8.70
2012,11,24,11,12,8.70
2012,11,24,11,13,8.70
2012,11,24,11,14,8.70
2012,11,24,11,15,8.80
2012,11,24,11,16,8.80
2012,11,24,11,17,8.80
2012,11,24,11,18,8.90
2012,11,24,11,19,8.90
2012,11,24,11,20,8.90
2012,11,24,11,21,9.00
2012,11,24,11,22,9.00
2012,11,24,11,23,9.00
2012,11,24,11,24,9.00
2012,11,24,11,25,9.00
2012,11,24,11,26,9.00
2012,11,24,11,27,9.10
2012,11,24,11,28,9.10
2012,11,24,11,29,9.20
2012,11,24,11,30,9.20
2012,11,24,11,31,9.20
2012,11,24,11,32,9.10
2012,11,24,11,33,9.10
2012,11,24,11,34,9.10
2012,11,24,11,35,9.10
2012,11,24,11,36,9.00
2012,11,24,11,37,9.00
2012,11,24,11,38,9.00
2012,11,24,11,39,9.00
2012,11,24,11,40,9.10
2012,11,24,11,41,9.10
2012,11,24,11,42,9.10
2012,11,24,11,43,9.10
2012,11,24,11,44,9.10
2012,11,24,11,45,9.10
2012,11,24,11,46,9.10
2012,11,24,11,47,9.10
2012,11,24,11,48,9.10
2012,11,24,11,49,9.10
2012,11,24,11,50,9.10
2012,11,24,11,51,9.10
2012,11,24,11,52,9.10
2012,11,24,11,53,9.10
2012,11,24,11,54,9.20
2012,11,24,11,55,9.20
2012,11,24,11,56,9.20
2012,11,24,11,57,9.20
2012,11,24,11,58,9.10
2012,11,24,11,59,9.10
2012,11,24,12,00,9.10
2012,11,24,12,01,9.10
2012,11,24,12,02,9.10
2012,11,24,12,03,9.10
2012,11,24,12,04,9.10
2012,11,24,12,05,9.10
2012,11,24,12,06,9.20
2012,11,24,12,07,9.20
2012,11,24,12,08,9.20
2012,11,24,12,09,9.20
2012,11,24,12,10,9.30
2012,11,24,12,11,9.30
2012,11,24,12,12,9.40
2012,11,24,12,13,9.40
2012,11,24,12,14,9.40
2012,11,24,12,15,9.40
2012,11,24,12,16,9.40
2012,11,24,12,17,9.40
2012,11,24,12,18,9.40
2012,11,24,12,19,9.40
2012,11,24,12,20,9.40
2012,11,24,12,21,9.40
2012,11,24,12,22,9.40
2012,11,24,12,23,9.40
2012,11,24,12,24,9.40
2012,11,24,12,25,9.30
2012,11,24,12,26,9.30
2012,11,24,12,27,9.30
2012,11,24,12,28,9.30
2012,11,24,12,29,9.30
2012,11,24,12,30,9.30
2012,11,24,12,31,9.30
2012,11,24,12,32,9.30
2012,11,24,12,33,9.30
2012,11,24,12,34,9.30
2012,11,24,12,35,9.40
2012,11,24,12,36,9.40
2012,11,24,12,37,9.40
2012,11,24,12,38,9.40
2012,11,24,12,39,9.40
2012,11,24,12,40,9.50
2012,11,24,12,41,9.60
2012,11,24,12,42,9.60
2012,11,24,12,43,9.60
2012,11,24,12,44,9.60
2012,11,24,12,45,9.50
2012,11,24,12,46,9.40
2012,11,24,12,47,9.40
2012,11,24,12,48,9.40
2012,11,24,12,49,9.40
2012,11,24,12,50,9.40
2012,11,24,12,51,9.40
2012,11,24,12,52,9.40
2012,11,24,12,53,9.40
2012,11,24,12,54,9.30
2012,11,24,12,55,9.30
2012,11,24,12,56,9.20
2012,11,24,12,57,9.20
2012,11,24,12,58,9.20
2012,11,24,12,59,9.10
2012,11,24,13,00,9.10
2012,11,24,13,01,9.00
2012,11,24,13,02,9.00
2012,11,24,13,03,8.90
2012,11,24,13,04,8.90
2012,11,24,13,05,8.90
2012,11,24,13,06,8.80
2012,11,24,13,07,8.80
2012,11,24,13,08,8.80
2012,11,24,13,09,8.80
2012,11,24,13,10,8.80
2012,11,24,13,11,8.80
2012,11,24,13,12,8.80
2012,11,24,13,13,8.80
2012,11,24,13,14,8.70
2012,11,24,13,15,8.70
2012,11,24,13,16,8.70
2012,11,24,13,17,8.70
2012,11,24,13,18,8.70
2012,11,24,13,19,8.70
2012,11,24,13,20,8.70
2012,11,24,13,21,8.70
2012,11,24,13,22,8.70
2012,11,24,13,23,8.70
2012,11,24,13,24,8.70
2012,11,24,13,25,8.70
2012,11,24,13,26,8.80
2012,11,24,13,27,8.80
2012,11,24,13,28,8.80
2012,11,24,13,29,8.80
2012,11,24,13,30,8.80
2012,11,24,13,31,8.90
2012,11,24,13,32,8.90
2012,11,24,13,33,8.90
2012,11,24,13,34,8.80
2012,11,24,13,35,8.80
2012,11,24,13,36,8.80
2012,11,24,13,37,8.90
2012,11,24,13,38,8.90
2012,11,24,13,39,8.90
2012,11,24,13,40,8.80
2012,11,24,13,41,8.80
2012,11,24,13,42,8.80
2012,11,24,13,43,8.80
2012,11,24,13,44,8.80
2012,11,24,13,45,8.70
2012,11,24,13,46,8.70
2012,11,24,13,47,8.70
2012,11,24,13,48,8.70
2012,11,24,13,49,8.70
2012,11,24,13,50,8.70
2012,11,24,13,51,8.70
2012,11,24,13,52,8.70
2012,11,24,13,53,8.70
2012,11,24,13,54,8.70
2012,11,24,13,55,8.60
2012,11,24,13,56,8.60
2012,11,24,13,57,8.60
2012,11,24,13,58,8.60
2012,11,24,13,59,8.60
2012,11,24,14,00,8.60
2012,11,24,14,01,8.60
2012,11,24,14,02,8.60
2012,11,24,14,03,8.60
2012,11,24,14,04,8.50
2012,11,24,14,05,8.60
2012,11,24,14,06,8.60
2012,11,24,14,07,8.60
2012,11,24,14,08,8.60
2012,11,24,14,09,8.60
2012,11,24,14,10,8.60
2012,11,24,14,11,8.60
2012,11,24,14,12,8.60
2012,11,24,14,13,8.50
2012,11,24,14,14,8.50
2012,11,24,14,15,8.50
2012,11,24,14,16,8.40
2012,11,24,14,17,8.40
2012,11,24,14,18,8.40
2012,11,24,14,19,8.40
2012,11,24,14,20,8.40
2012,11,24,14,21,8.40
2012,11,24,14,22,8.40
2012,11,24,14,23,8.40
2012,11,24,14,24,8.40
2012,11,24,14,25,8.40
2012,11,24,14,26,8.50
2012,11,24,14,27,8.50
2012,11,24,14,28,8.50
2012,11,24,14,29,8.50
2012,11,24,14,30,8.50
2012,11,24,14,31,8.40
2012,11,24,14,32,8.40
2012,11,24,14,33,8.40
2012,11,24,14,34,8.40
2012,11,24,14,35,8.50
2012,11,24,14,36,8.50
2012,11,24,14,37,8.50
2012,11,24,14,38,8.50
2012,11,24,14,39,8.50
2012,11,24,14,40,8.60
2012,11,24,14,41,8.60
2012,11,24,14,42,8.60
2012,11,24,14,43,8.60
2012,11,24,14,44,8.60
2012,11,24,14,45,8.60
2012,11,24,14,46,8.60
2012,11,24,14,47,8.60
2012,11,24,14,48,8.60
2012,11,24,14,49,8.60
2012,11,24,14,50,8.60
2012,11,24,14,51,8.60
2012,11,24,14,52,8.60
2012,11,24,14,53,8.60
2012,11,24,14,54,8.60
2012,11,24,14,55,8.60
2012,11,24,14,56,8.60
2012,11,24,14,57,8.60
2012,11,24,14,58,8.70
2012,11,24,14,59,8.70
2012,11,24,15,00,8.70
2012,11,24,15,01,8.70
2012,11,24,15,02,8.70
2012,11,24,15,03,8.70
2012,11,24,15,04,8.70
2012,11,24,15,05,8.70
2012,11,24,15,06,8.70
2012,11,24,15,07,8.80
2012,11,24,15,08,8.80
2012,11,24,15,09,8.80
2012,11,24,15,10,8.80
2012,11,24,15,11,8.80
2012,11,24,15,12,8.80
2012,11,24,15,13,8.80
2012,11,24,15,14,8.80
2012,11,24,15,15,8.90
2012,11,24,15,16,8.90
2012,11,24,15,17,8.90
2012,11,24,15,18,8.80
2012,11,24,15,19,8.80
2012,11,24,15,20,8.80
2012,11,24,15,21,8.80
2012,11,24,15,22,8.80
2012,11,24,15,23,8.80
2012,11,24,15,24,8.80
2012,11,24,15,25,8.80
2012,11,24,15,26,8.80
2012,11,24,15,27,8.80
2012,11,24,15,28,8.80
2012,11,24,15,29,8.90
2012,11,24,15,30,8.90
2012,11,24,15,31,8.90
2012,11,24,15,32,8.90
2012,11,24,15,33,8.90
2012,11,24,15,34,9.00
2012,11,24,15,35,9.00
2012,11,24,15,36,9.10
2012,11,24,15,37,9.10
2012,11,24,15,38,9.20
2012,11,24,15,39,9.20
2012,11,24,15,40,9.20
2012,11,24,15,41,9.30
2012,11,24,15,42,9.30
2012,11,24,15,43,9.30
2012,11,24,15,44,9.30
2012,11,24,15,45,9.30
2012,11,24,15,46,9.40
2012,11,24,15,47,9.40
2012,11,24,15,48,9.40
2012,11,24,15,49,9.40
2012,11,24,15,50,9.30
2012,11,24,15,51,9.30
2012,11,24,15,52,9.30
2012,11,24,15,53,9.30
2012,11,24,15,54,9.20
2012,11,24,15,55,9.10
2012,11,24,15,56,9.10
2012,11,24,15,57,9.00
2012,11,24,15,58,8.90
2012,11,24,15,59,8.80
2012,11,24,16,00,8.70
2012,11,24,16,01,8.60
2012,11,24,16,02,8.60
2012,11,24,16,03,8.50
2012,11,24,16,04,8.40
2012,11,24,16,05,8.40
2012,11,24,16,06,8.30
2012,11,24,16,07,8.30
2012,11,24,16,08,8.20
2012,11,24,16,09,8.20
2012,11,24,16,10,8.10
2012,11,24,16,11,8.10
2012,11,24,16,12,8.10
2012,11,24,16,13,8.00
2012,11,24,16,14,8.00
2012,11,24,16,15,7.90
2012,11,24,16,16,7.90
2012,11,24,16,17,7.90
2012,11,24,16,18,7.90
2012,11,24,16,19,7.90
2012,11,24,16,20,7.90
2012,11,24,16,21,7.90
2012,11,24,16,22,7.90
2012,11,24,16,23,7.90
2012,11,24,16,24,7.90
2012,11,24,16,25,7.90
